Location: Six Mile Lake
(44.9000°N, 79.7170°W)
Time: 08:11:58
(UTC-04:00)

ZACube-1 - Pass Details

Date: 11 July 2022
Orbit: 582 x 661 km, 97.6° (Epoch: 14 August)

Event Time Altitude Azimuth Distance (km) Brightness Sun altitude
Rises 04:25:30 0° 23° (NNE) 2,991 ? -11.3°
Reaches altitude 10° 04:28:01 10° 36° (NE) 2,081 ? -11.0°
Maximum altitude 04:31:55 27° 94° (E) 1,257 ? -10.6°
Drops below altitude 10° 04:35:47 10° 153° (SSE) 2,074 ? -10.1°
Sets 04:38:17 0° 165° (SSE) 2,978 ? -9.8°
